[[{"header":{"parameterUnit":"m.s-1","parameterCategory":1,"la1":30.2991,"la2":30.254,"lo1":-89.0895,"lo2":-89.0444,"dy":0.0017,"dx":0.0017,"nx":28,"ny":28,"refTime":"2025-08-17T03:00:00:Z","depth":0,"parameterNumber":2,"parameterNumberName":"U-component_of_WINDS"},"data":[0,0,0,0,0,0,0,0,0,0,0,0,0,0,0,0,0,0,0,0,0,0,0,0,0,0,0,0,0,0,0,0,0,0,0,0,0,0,0,0,0,0,0,0,0,0,0,0,0,0,0,0,0,0,0,0,0,0,1.5438,1.5436,0,1.53,1.5299,1.5297,1.5142,1.514,1.5138,1.5136,1.4995,1.4993,1.4992,0,0,0,0,0,0,0,0,0,0,0,0,0,1.5568,1.5567,1.5438,1.5436,1.5435,1.5301,1.5299,1.5297,1.5143,1.514,1.5137,1.5135,1.4995,1.4993,1.4991,0,0,0,0,0,0,0,0,0,0,0,0,0,1.548,1.5566,1.5438,1.5342,1.5331,1.5301,1.5299,1.5296,1.5143,1.514,1.5136,1.5133,1.4996,1.4994,1.4991,1.5045,0,0,1.4984,1.4983,0,0,0,0,0,0,0,0,1.5485,1.5475,1.5357,1.5348,1.5337,1.5235,1.5293,1.5212,1.5144,1.5215,1.5136,1.5132,1.5078,1.5068,1.505,1.5038,1.5032,1.4984,1.4982,1.4981,1.498,0,0,0,0,0,0,0,1.5491,1.548,1.5383,1.5356,1.5343,1.5305,1.5289,1.5277,1.5167,1.5208,1.5197,1.5183,1.5071,1.5053,1.5045,1.503,1.4984,1.4981,1.498,1.4979,1.5056,1.5059,0,0,0,0,0,0,1.5512,1.5486,1.5388,1.5379,1.5404,1.5306,1.5287,1.5271,1.5167,1.5148,1.5186,1.5176,1.5058,1.5048,1.504,1.5094,1.4981,1.4979,1.4977,1.5052,1.5057,1.506,0,0,0,0,0,0,1.5515,1.5504,1.5393,1.543,1.5412,1.5307,1.529,1.527,1.5251,1.515,1.5129,1.5187,1.5055,1.5043,1.5045,1.5087,1.4978,1.4975,1.5048,1.5054,1.5059,1.5204,0,0,0,0,0,0,1.552,1.5507,1.5525,1.5431,1.5411,1.54,1.5293,1.527,1.5247,1.5233,1.5145,1.5127,1.5052,1.5049,1.5042,1.5082,1.4974,1.5044,1.5051,1.5057,1.5195,1.5214,1.523,0,0,0,0,0,1.5525,1.5572,1.5527,1.5516,1.5432,1.5403,1.5391,1.5303,1.5252,1.5269,1.5205,1.513,1.5085,1.5051,1.5042,1.5081,1.5041,1.5049,1.5056,1.5187,1.521,1.523,0,0,0,0,0,0,1.5672,1.5557,1.5506,1.5524,1.5475,1.5377,1.5396,1.5331,1.5294,1.5283,1.5176,1.5157,1.5171,1.5127,1.5091,1.5128,1.5052,1.5059,1.5155,1.5176,1.5193,1.5201,1.4972,0,0,0,0,0,1.5707,1.5693,1.5593,1.5619,1.5597,1.5502,1.5486,1.5423,1.5367,1.5345,1.528,1.5229,1.5203,1.5188,1.5158,1.519,1.5168,1.5213,1.5231,1.5246,1.5251,1.5264,1.5282,1.5086,1.5086,1.5086,0,0,1.5778,1.5714,1.5711,1.5647,1.5601,1.5588,1.5485,1.5476,1.5465,1.5343,1.5339,1.5292,1.5228,1.5244,1.5248,1.5208,1.5301,1.5256,1.5268,1.5265,1.5274,1.5292,1.5309,1.5092,1.5091,1.509,0,0,1.5899,1.5851,1.5865,1.5823,1.5755,1.5692,1.5697,1.561,1.5573,1.5568,1.5477,1.5464,1.5422,1.538,1.5353,1.5465,1.5394,1.5459,1.5548,1.5561,1.5577,1.559,1.5627,1.5642,1.5466,1.5466,1.5466,0,1.5995,1.5972,1.5882,1.5878,1.5853,1.5745,1.5759,1.5722,1.5649,1.5634,1.5591,1.5536,1.5486,1.549,1.5518,1.5501,1.5502,1.5465,1.5582,1.5594,1.5605,1.5639,1.5654,1.5474,1.5473,1.5472,1.5472,0,1.6093,1.6079,1.61,1.6032,1.601,1.6016,1.5926,1.5915,1.5856,1.5799,1.5796,1.5733,1.5688,1.5686,1.5628,1.5684,1.566,1.5602,1.5522,1.5633,1.5663,1.5676,1.5485,1.5483,1.548,1.5478,0,0,1.6296,1.6182,1.6191,1.6159,1.6079,1.6067,1.607,1.6027,1.6018,1.5974,1.5972,1.5941,1.5887,1.5857,1.5794,1.5807,1.5897,1.5746,1.5743,1.5773,1.5952,1.5993,1.601,1.5853,1.5855,1.5857,1.5956,0,1.64,1.6396,1.6317,1.6335,1.6321,1.6221,1.6223,1.6175,1.6123,1.6104,1.6047,1.6025,1.5956,1.5937,1.5946,1.5884,1.5931,1.5877,1.5848,1.5848,1.5861,1.6026,1.6069,1.6165,1.5968,1.597,1.5971,0,1.6519,1.6482,1.65,1.6421,1.6412,1.6415,1.637,1.6354,1.6298,1.6259,1.6229,1.6158,1.6156,1.6086,1.608,1.6045,1.603,1.5999,1.6001,1.599,1.5912,1.6016,1.6194,1.6207,1.5989,1.5988,1.5987,0,1.6662,1.6617,1.6621,1.6598,1.6507,1.6511,1.6474,1.6415,1.6395,1.6357,1.6343,1.6307,1.6285,1.6259,1.6181,1.6137,1.6184,1.6107,1.6149,1.6152,1.6158,1.6158,1.6333,1.6158,1.6158,1.6157,1.6157,0,1.6783,1.6796,1.6684,1.6686,1.6699,1.661,1.6625,1.6578,1.6528,1.6519,1.6433,1.6427,1.6326,1.631,1.625,1.6253,1.6245,1.6213,1.6196,1.6217,1.6221,1.6202,1.6191,1.6161,1.616,1.616,1.6159,0,1.6941,1.6867,1.6864,1.678,1.676,1.6773,1.67,1.6699,1.6644,1.6635,1.6627,1.654,1.6516,1.6438,1.6394,1.6354,1.6374,1.6345,1.6393,1.6381,1.6426,1.6421,1.659,1.6606,1.6426,1.6428,1.643,0,1.702,1.7028,1.6947,1.6935,1.6901,1.6884,1.6864,1.6779,1.6761,1.6701,1.6707,1.6676,1.6646,1.6613,1.6545,1.6512,1.6478,1.6541,1.6472,1.6494,1.6475,1.6473,1.6472,1.6553,1.6555,1.6557,1.6559,0,1.7168,1.7132,1.7106,1.7069,1.7048,1.7014,1.6976,1.6972,1.6876,1.6862,1.6836,1.6814,1.677,1.674,1.6697,1.6658,1.6592,1.6582,1.6589,1.6609,1.6634,1.6617,1.6428,1.6577,1.6575,1.6574,1.6573,1.6572,1.7285,1.7288,1.7231,1.7206,1.7169,1.7136,1.7131,1.7077,1.7054,1.7011,1.6964,1.6944,1.6891,1.6826,1.6793,1.6776,1.674,1.6752,1.6754,1.6757,1.6766,1.6643,1.6769,1.6768,1.6768,1.6767,1.6767,0,1.7425,1.7385,1.7363,1.7313,1.7294,1.7238,1.7193,1.718,1.7164,1.712,1.7094,1.7065,1.7037,1.697,1.6936,1.6936,1.6905,1.6929,1.6925,1.6917,1.6801,1.6797,1.6954,1.6954,1.6954,1.6954,1.6954,1.6954,1.7495,1.7496,1.7454,1.7437,1.7396,1.7376,1.7356,1.7325,1.729,1.7262,1.7238,1.7196,1.7143,1.7104,1.7076,1.7057,1.7047,1.7081,1.7052,1.6943,1.6925,1.6908,1.6903,1.708,1.708,1.7168,1.7168,1.7169]},{"header":{"parameterUnit":"m.s-1","parameterCategory":1,"la1":30.2991,"la2":30.254,"lo1":-89.0895,"lo2":-89.0444,"dy":0.0017,"dx":0.0017,"nx":28,"ny":28,"refTime":"2025-08-17T03:00:00:Z","depth":0,"parameterNumber":3,"parameterNumberName":"V-component_of_WINDS"},"data":[0,0,0,0,0,0,0,0,0,0,0,0,0,0,0,0,0,0,0,0,0,0,0,0,0,0,0,0,0,0,0,0,0,0,0,0,0,0,0,0,0,0,0,0,0,0,0,0,0,0,0,0,0,0,0,0,0,0,3.2774,3.2773,0,3.2706,3.2705,3.2705,3.2586,3.2584,3.2581,3.2579,3.2508,3.2508,3.2509,0,0,0,0,0,0,0,0,0,0,0,0,0,3.2797,3.2797,3.2774,3.2773,3.2772,3.2706,3.2705,3.2704,3.2586,3.2584,3.2581,3.2578,3.2508,3.2508,3.2509,0,0,0,0,0,0,0,0,0,0,0,0,0,3.2764,3.2797,3.2774,3.2705,3.2698,3.2707,3.2705,3.2704,3.2587,3.2583,3.258,3.2577,3.2508,3.2508,3.2509,3.2578,0,0,3.251,3.251,0,0,0,0,0,0,0,0,3.2766,3.2763,3.2716,3.271,3.2702,3.2651,3.2687,3.2662,3.2588,3.2629,3.2579,3.2575,3.2558,3.2554,3.2549,3.2574,3.2571,3.251,3.251,3.251,3.251,0,0,0,0,0,0,0,3.2768,3.2765,3.2747,3.2716,3.2707,3.2677,3.2668,3.2682,3.2613,3.2625,3.2617,3.261,3.2554,3.2549,3.2546,3.257,3.251,3.251,3.251,3.251,3.2642,3.2646,0,0,0,0,0,0,3.2781,3.2768,3.2749,3.2745,3.2727,3.2679,3.267,3.2671,3.2613,3.2601,3.2613,3.2605,3.255,3.2546,3.2543,3.2615,3.251,3.251,3.251,3.2639,3.2643,3.2647,0,0,0,0,0,0,3.2782,3.2781,3.2752,3.2754,3.2748,3.2682,3.2685,3.2671,3.2666,3.2604,3.2591,3.2621,3.2547,3.2543,3.2569,3.2611,3.251,3.2511,3.2635,3.264,3.2645,3.2763,0,0,0,0,0,0,3.2783,3.2782,3.2808,3.2756,3.2748,3.278,3.2687,3.2672,3.2667,3.2656,3.2607,3.2596,3.2544,3.2569,3.2569,3.261,3.2511,3.2631,3.2638,3.2643,3.2754,3.2771,3.2785,0,0,0,0,0,3.2784,3.2845,3.281,3.2808,3.278,3.2783,3.2778,3.2718,3.2671,3.2696,3.2655,3.2598,3.2608,3.2573,3.2572,3.2613,3.2628,3.2636,3.2643,3.2748,3.2768,3.2785,0,0,0,0,0,0,3.2904,3.2837,3.2797,3.2843,3.2819,3.2763,3.2792,3.2742,3.2731,3.272,3.2646,3.2636,3.267,3.2645,3.2607,3.2674,3.2608,3.2616,3.2688,3.2707,3.2722,3.2725,3.2511,0,0,0,0,0,3.2936,3.2944,3.2885,3.293,3.2921,3.2859,3.2858,3.2813,3.2785,3.2775,3.2736,3.2711,3.2707,3.2706,3.2701,3.2752,3.2736,3.278,3.2795,3.2808,3.2814,3.2833,3.285,3.2671,3.2671,3.2671,0,0,3.3001,3.2965,3.2975,3.2953,3.293,3.2938,3.2851,3.2865,3.2869,3.2777,3.2796,3.2768,3.2734,3.2772,3.2786,3.2751,3.286,3.2817,3.2828,3.2827,3.2842,3.2859,3.2874,3.2677,3.2676,3.2675,0,0,3.3123,3.3099,3.3131,3.311,3.3075,3.3033,3.3042,3.2992,3.2969,3.2989,3.2918,3.2922,3.292,3.2896,3.2884,3.2996,3.294,3.2996,3.3074,3.3094,3.3108,3.312,3.3154,3.3168,3.3004,3.3004,3.3004,0,3.3207,3.3218,3.3155,3.3171,3.3162,3.3079,3.3109,3.3091,3.3057,3.3051,3.3014,3.3005,3.2978,3.3005,3.3032,3.3028,3.3031,3.2999,3.3111,3.3123,3.3133,3.3164,3.3178,3.301,3.301,3.3009,3.3008,0,3.3321,3.3329,3.336,3.3327,3.3322,3.3346,3.3284,3.3286,3.3243,3.3204,3.3223,3.3186,3.3169,3.3173,3.3132,3.3194,3.3173,3.3125,3.3057,3.3157,3.3185,3.3197,3.302,3.3017,3.3016,3.3014,0,0,3.3513,3.3445,3.3456,3.3438,3.3394,3.3398,3.3418,3.3401,3.3401,3.3381,3.3391,3.339,3.3344,3.3331,3.3285,3.3304,3.3387,3.3252,3.325,3.3273,3.3447,3.3479,3.3495,3.3352,3.3354,3.3356,3.3448,0,3.3621,3.3649,3.3592,3.3633,3.3637,3.3558,3.3574,3.3547,3.3512,3.3509,3.347,3.3468,3.3411,3.3401,3.3416,3.3374,3.342,3.3367,3.3357,3.3357,3.3362,3.351,3.3546,3.3634,3.3459,3.3461,3.3462,0,3.3749,3.3733,3.3775,3.3724,3.3723,3.3739,3.3716,3.3716,3.3683,3.3656,3.3641,3.3587,3.3599,3.3537,3.355,3.3515,3.3508,3.3487,3.3489,3.3481,3.3412,3.3501,3.3662,3.3673,3.348,3.3479,3.3477,0,3.3877,3.3867,3.3889,3.3877,3.3821,3.3832,3.3809,3.3773,3.3765,3.3746,3.3739,3.3723,3.3712,3.3699,3.3641,3.3602,3.3659,3.3593,3.3632,3.3633,3.3643,3.3643,3.3799,3.3649,3.3649,3.3649,3.3648,0,3.4,3.4027,3.3945,3.3958,3.3985,3.392,3.3947,3.3916,3.3884,3.3888,3.3821,3.3825,3.3751,3.3746,3.3702,3.3716,3.3713,3.3688,3.3675,3.3691,3.3693,3.3681,3.3672,3.3652,3.3651,3.365,3.365,0,3.4145,3.4093,3.411,3.4055,3.4042,3.4064,3.4015,3.4023,3.3984,3.3989,3.3987,3.3925,3.3915,3.3858,3.3836,3.3805,3.3834,3.3811,3.3845,3.3835,3.3875,3.387,3.4025,3.4039,3.3885,3.3887,3.3888,0,3.4224,3.4242,3.4189,3.4187,3.4166,3.4165,3.4156,3.4092,3.4086,3.4048,3.406,3.4046,3.403,3.4019,3.397,3.3952,3.3924,3.398,3.3921,3.3935,3.3918,3.3915,3.3914,3.3991,3.3993,3.3995,3.3996,0,3.4367,3.434,3.433,3.4312,3.4303,3.4286,3.4263,3.4265,3.4194,3.419,3.418,3.4168,3.4145,3.4129,3.4103,3.4076,3.4022,3.4016,3.4022,3.4036,3.4053,3.4038,3.3873,3.4011,3.401,3.4009,3.4008,3.4007,3.4477,3.4488,3.4451,3.4442,3.4419,3.44,3.4403,3.4364,3.4355,3.4331,3.4295,3.4289,3.4252,3.421,3.4188,3.418,3.415,3.4162,3.4163,3.4166,3.4172,3.4059,3.4176,3.4175,3.4175,3.4174,3.4174,0,3.4611,3.4584,3.4577,3.4547,3.4539,3.4493,3.4466,3.4461,3.4457,3.4428,3.4414,3.44,3.4385,3.4335,3.4314,3.4317,3.4291,3.4313,3.4309,3.4302,3.4203,3.4196,3.4333,3.4333,3.4333,3.4333,3.4333,3.4333,3.468,3.4694,3.4663,3.4664,3.4636,3.463,3.4617,3.4598,3.4574,3.4562,3.4549,3.4517,3.4478,3.4453,3.4435,3.4421,3.4414,3.4442,3.4419,3.4326,3.431,3.4296,3.4289,3.4442,3.4443,3.4518,3.4519,3.4519]}]]